User: anonymous   Login
Location: Albany
(35.0000°S, 118.0000°E)
Time: 19:59:24
(UTC-05:00)
Language:

Cosmos 2227 Rocket - Orbit

View from above orbital plane
View from above orbital plane
View from above satellite
View from above satellite

Ground track
Ground track

The orbit data is extracted from the following two-line orbital elements,

1 22285U 92093B   17056.11741003  .00000292  00000-0  17520-3 0  9999
2 22285  71.0205  87.3759 0006250 287.7764  72.2676 14.15006596246682
Epoch (UTC): 25 February 2017 02:49:04
Eccentricity: 0.0006250
inclination: 71.0205°
perigee height: 838 km
apogee height: 847 km
right ascension of ascending node: 87.3759°
argument of perigee: 287.7764°
revolutions per day: 14.15006596
mean anomaly at epoch: 72.2676°
orbit number at epoch: 24668

The dashed part of the orbit path shows where the satellite is in the earth's shadow,  

DLR